| time (UTC) | temp F | wind direction | speed MPH | gust MPH | rain 1hr in | rain 24hr in | rain mn in | humidity % | barometer mb |
| 20260506011740 | 45 | 250 | 23.0 | 31.0 | 0.00 | 0.00 | 0.00 | 93 | |
| 20260506001639 | 45 | 250 | 17.0 | 25.0 | 0.00 | 0.00 | 0.00 | 93 | |
| 20260505231639 | 45 | 260 | 16.0 | 0.0 | 0.00 | 0.00 | 0.00 | 93 | |
| 20260505221638 | 45 | 260 | 13.0 | 0.0 | 0.00 | 0.00 | 0.00 | 99 | |
| 20260505211656 | 45 | 310 | 12.0 | 0.0 | 0.00 | 0.00 | 0.00 | 99 | |
| 20260505201655 | 45 | 260 | 28.0 | 39.0 | 0.00 | 0.00 | 0.00 | 99 | |
| 20260505191656 | 50 | 70 | 14.0 | 0.0 | 0.00 | 0.00 | 0.00 | 93 | |
| 20260505181639 | 50 | 60 | 10.0 | 17.0 | 0.00 | 0.00 | 0.00 | 93 | |
| 20260505171639 | 50 | 30 | 14.0 | 0.0 | 0.00 | 0.00 | 0.00 | 99 | |
| 20260505161739 | 50 | 20 | 13.0 | 0.0 | 0.00 | 0.00 | 0.00 | 99 | |
| 20260505151638 | 52 | 30 | 10.0 | 0.0 | 0.00 | 0.00 | 0.00 | 93 | |
| 20260505121639 | 57 | 360 | 10.0 | 0.0 | 0.00 | 0.00 | 0.00 | 71 | |
| 20260505111638 | 54 | 360 | 12.0 | 0.0 | 0.00 | 0.00 | 0.00 | 81 | |
| 20260505101639 | 61 | 90 | 7.0 | 0.0 | 0.00 | 0.00 | 0.00 | 67 | |
| 20260505091639 | 59 | 100 | 7.0 | 0.0 | 0.00 | 0.00 | 0.00 | 67 | |
| 20260505081639 | 54 | 80 | 8.0 | 0.0 | 0.00 | 0.00 | 0.00 | 81 | |
| 20260505071638 | 50 | 30 | 9.0 | 0.0 | 0.00 | 0.00 | 0.00 | 87 | |
| 20260505061639 | 48 | 20 | 10.0 | 0.0 | 0.00 | 0.00 | 0.00 | 87 | |
| 20260505051639 | 48 | 40 | 8.0 | 0.0 | 0.00 | 0.00 | 0.00 | 87 | |
| 20260505041639 | 50 | 60 | 10.0 | 0.0 | 0.00 | 0.00 | 0.00 | 76 | |
| 20260505031639 | 50 | 50 | 9.0 | 0.0 | 0.00 | 0.00 | 0.00 | 76 | |
| 20260505021639 | 50 | 50 | 10.0 | 0.0 | 0.00 | 0.00 | 0.00 | 76 |